{"data":{"norad_id":57909,"intl_designator":"2023-146U","name":"STARLINK-30463","alt_names":[],"object_type":"PAYLOAD","status":"ACTIVE","operator":null,"country":"US","launch_date":"2023-09-20","launch_site_code":"AFETR","launch_vehicle":null,"mission":null,"orbit_class":"UNKNOWN","rcs_meters":null,"size_class":null,"mass_kg":null,"dimensions":null,"purposes":["comms"],"wikipedia_slug":null,"has_3d_model":false,"image_url":null,"decayed_at":null,"tle_current":{"epoch":"2026-09-19T14:02:13.041024Z","epoch_age_seconds":213447,"freshness":"STALE","line1":"1 57909U 23146U   26262.58487316 -.00000415  00000+0 -55750-5 0  9994","line2":"2 57909  43.0016 299.7229 0001108 278.6262  81.4465 15.27576232165649","mean_motion":15.27576232,"eccentricity":0.0001108,"inclination_deg":43.0016,"raan_deg":299.7229,"arg_perigee_deg":278.6262,"mean_anomaly_deg":81.4465,"bstar":-5.575e-6,"rev_number":16564,"period_min":94.26698123698,"perigee_km":482.3001581408,"apogee_km":483.82059947995,"semimajor_km":6861.1973788104,"source":"CELESTRAK","updated_at":"2026-09-21T09:00:33.724007Z"}}}